www.pogodaiklimat.ru

Погода и климат >> Архив погоды >> Венгрия >> Baja


ПОГОДА в Baja

  • Прогноз погоды в Baja
  • Монитор погоды в Baja
  • Климат города

АРХИВ ПОГОДЫ в Baja

Время (UTC), дата Ветер
(напр.,м/с)
 
Видим.   Явления Облачность Т
(С)
Тd
(С)
f
(%)
Тe
(С)
Тes
(С)
Комфортность P
(гПа)
Po
(гПа)
Тmin
(С)
Tmax
(С)
R
(мм)
R24
(мм)
S
(см)
22 8.12 ЮЗ 1 н/о н/о +0.1 -0.5 96 -2 -2 1014.3 1000.2
23 8.12 ЮЗ 1 н/о н/о +2.0 +1.7 98 0 0 1014.4 1000.4
00 9.12 ЮЗ 2 н/о н/о +1.3 +1.0 98 -2 -2 1014.0 1000.0
02 9.12 Ю 1 н/о н/о +0.2 +0.1 99 -2 -2 1012.6 998.5
01 9.12 ЮЗ 1 н/о н/о +1.0 +0.9 99 -1 -1 1013.4 999.4
03 9.12 Ю 2 н/о н/о -0.2 -0.3 99 -4 -4 1012.2 998.1
04 9.12 Ю 2 н/о н/о -0.1 -0.2 99 -4 -4 1011.1 997.0
05 9.12 Ю 2 н/о н/о -0.2 -0.2 100 -4 -4 1010.4 996.3
06 9.12 Ю 2 н/о н/о -0.1 -0.1 100 -4 -4 1010.6 996.5 -1.2
08 9.12 Ю 3 н/о н/о +1.4 +1.4 100 -3 -3 1008.3 994.3
07 9.12 Ю 2 н/о н/о -0.1 -0.1 100 -4 -4 1009.4 995.4
09 9.12 Ю 4 н/о н/о +3.8 +3.7 99 -1 -1 1007.5 993.7
10 9.12 Ю 4
{9}
н/о н/о +5.1 +2.8 85 +1 +1 1006.4 992.7
11 9.12 ЮЗ 1
{8}
н/о н/о +7.3 +1.8 68 +7 +7 1006.7 993.1
12 9.12 Ю 1 н/о н/о +7.4 +1.7 67 +7 +7 1006.0 992.4
14 9.12 Ю 1 н/о н/о +7.3 +2.6 72 +7 +7 1004.8 991.2
13 9.12 Ю 2 н/о н/о +7.4 +1.9 68 +6 +6 1005.3 991.7
15 9.12 ЮЗ 1 н/о н/о +6.0 +2.6 79 +5 +5 1005.2 991.5
16 9.12 В 1 н/о н/о +4.9 +2.1 82 +4 +4 1005.1 991.4
17 9.12 штиль 0 н/о н/о +3.7 +1.9 88 +3 +3 1004.9 991.1
18 9.12 штиль 0 н/о н/о +2.6 +1.3 91 +1 +1 1005.6 991.7 +7.7
20 9.12 Ю 1 н/о н/о +1.0 +0.3 95 -1 -1 1006.3 992.4
19 9.12 штиль 0 н/о н/о +2.1 +1.2 94 +1 +1 1006.3 992.4
21 9.12 штиль 0 н/о н/о +0.6 0.0 96 -1 -1 1006.7 992.7
22 9.12 штиль 0 н/о н/о +0.8 +0.4 97 -1 -1 1007.0 993.0
23 9.12 штиль 0 н/о н/о +1.5 +0.9 96 0 0 1007.4 993.5
00 10.12 штиль 0 н/о н/о +2.2 +1.3 94 +1 +1 1007.5 993.6
02 10.12 З 1 н/о н/о +3.2 +2.8 97 +1 +1 1008.5 994.6
01 10.12 З 1 н/о н/о +2.2 +1.3 94 0 0 1008.0 994.1
03 10.12 СЗ 1 н/о н/о +4.1 +3.8 98 +2 +2 1008.8 995.0
04 10.12 штиль 0 н/о н/о +4.3 +4.0 98 +3 +3 1008.7 994.9
05 10.12 З 1 н/о н/о +3.5 +3.2 98 +2 +2 1009.3 995.4
06 10.12 З 2 н/о н/о +2.6 +2.5 99 -1 -1 1009.8 995.9 +0.6 2
08 10.12 СЗ 3
{7}
н/о н/о +5.1 +3.0 86 +2 +2 1011.3 997.5
07 10.12 З 1 н/о н/о +2.6 +2.5 99 +1 +1 1010.3 996.4
09 10.12 З 3 н/о н/о +6.3 +2.8 78 +3 +3 1012.2 998.4
10 10.12 СЗ 6
{13}
н/о н/о +8.3 +0.8 59 +5 +5 1012.3 998.6
11 10.12 СЗ 5
{12}
н/о н/о +8.9 +0.4 55 +6 +6 1012.1 998.5
12 10.12 СЗ 6 н/о н/о +9.2 +0.4 54 +6 +6 1012.6 999.0
14 10.12 СЗ 3
{10}
н/о н/о +7.4 +0.6 62 +5 +5 1013.6 999.9
13 10.12 СЗ 4
{13}
н/о н/о +8.7 +0.2 55 +6 +6 1013.1 999.4
15 10.12 З 3
{10}
н/о н/о +7.0 -0.5 59 +4 +4 1013.8 1000.0
16 10.12 СЗ 4
{9}
н/о н/о +5.7 -0.6 64 +2 +2 1014.1 1000.3
17 10.12 З 2
{8}
н/о н/о +5.1 -0.7 66 +3 +3 1014.5 1000.6
18 10.12 З 3 н/о н/о +4.0 -1.0 70 +1 +1 1014.9 1001.0 +9.6
20 10.12 З 3 н/о н/о +2.8 -1.0 76 -1 -1 1015.5 1001.5
19 10.12 СЗ 3 н/о н/о +3.6 -1.2 71 0 0 1015.1 1001.2
21 10.12 З 3 н/о н/о +3.0 -1.0 75 -1 -1 1015.6 1001.6
22 10.12 З 3 н/о н/о +2.8 -1.2 75 -1 -1 1015.6 1001.6
23 10.12 СЗ 1 н/о н/о +1.6 -2.0 77 0 0 1015.5 1001.5
00 11.12 З 2 н/о н/о +1.2 -2.0 79 -2 -2 1015.7 1001.6
02 11.12 З 1 н/о н/о +0.8 -2.4 79 -1 -1 1015.7 1001.6
01 11.12 З 1 н/о н/о +0.4 -2.6 80 -1 -1 1015.7 1001.6
03 11.12 З 3 н/о н/о +1.0 -2.2 79 -3 -3 1015.8 1001.7
04 11.12 З 2 н/о н/о +1.0 -2.6 77 -2 -2 1015.8 1001.7
05 11.12 З 2 н/о н/о +0.2 -2.7 81 -3 -3 1015.9 1001.8
06 11.12 штиль 0 н/о н/о -1.0 -3.2 85 -2 -2 1016.4 1002.2 -1.0
08 11.12 штиль 0 н/о н/о -0.5 -1.9 90 -2 -2 1017.0 1002.8
07 11.12 штиль 0 н/о н/о -2.8 -3.9 92 -4 -4 1016.8 1002.5
09 11.12 З 1 н/о н/о +3.9 -0.5 73 +3 +3 1016.8 1002.9
10 11.12 З 2 н/о н/о +4.7 -1.1 66 +2 +2 1016.6 1002.7
11 11.12 З 3 н/о н/о +5.1 -1.1 64 +2 +2 1016.2 1002.3
12 11.12 З 3 н/о н/о +3.7 -0.3 75 0 0 1016.6 1002.6
14 11.12 З 2
{8}
н/о н/о +3.3 +0.7 83 0 0 1017.0 1003.0
13 11.12 З 4
{7}
н/о н/о +3.0 +0.4 83 -2 -2 1016.9 1002.9
15 11.12 З 2 н/о н/о +3.4 +0.3 80 +1 +1 1017.4 1003.4
16 11.12 З 1 н/о н/о +3.1 +0.3 82 +2 +2 1017.5 1003.5
17 11.12 штиль 0 н/о н/о +2.6 +0.5 86 +2 +2 1017.4 1003.4
18 11.12 Ю 1 н/о н/о +1.7 +0.1 89 -0 -0 1017.4 1003.3 +5.5
20 11.12 штиль 0 н/о н/о +1.8 +0.2 89 +1 +1 1017.8 1003.7
19 11.12 штиль 0 н/о н/о +1.9 +0.3 89 +1 +1 1017.7 1003.6
21 11.12 штиль 0 н/о н/о +1.6 +0.3 91 0 0 1017.5 1003.4
22 11.12 штиль 0 н/о н/о +1.7 +0.1 89 +1 +1 1017.7 1003.6
23 11.12 штиль 0 н/о н/о +1.4 +0.5 94 0 0 1017.6 1003.5
00 12.12 З 1 н/о н/о +2.0 +0.2 88 0 0 1017.3 1003.3 0.1
02 12.12 З 2 н/о н/о +3.1 -0.9 75 0 0 1017.2 1003.2
01 12.12 З 2 н/о н/о +2.7 -0.7 78 -0 -0 1017.3 1003.3
03 12.12 З 2 н/о н/о +2.8 -1.0 76 -0 -0 1017.3 1003.3
04 12.12 З 3
{7}
н/о н/о +3.6 -0.6 74 0 0 1017.2 1003.2
05 12.12 З 1 н/о н/о +3.3 -0.9 74 +2 +2 1017.5 1003.5
06 12.12 З 2 н/о н/о +3.2 -1.0 74 0 0 1017.7 1003.7 +1.3 0.1
08 12.12 СЗ 2 н/о н/о +3.2 +0.3 81 0 0 1018.5 1004.5
07 12.12 СЗ 2 н/о н/о +2.6 -0.2 82 -1 -1 1018.2 1004.2
09 12.12 СЗ 3 н/о н/о +4.2 -0.0 74 +1 +1 1018.9 1004.9
10 12.12 СЗ 3 н/о н/о +4.7 -0.7 68 +1 +1 1018.9 1005.0
11 12.12 СЗ 3 н/о н/о +6.0 -0.3 64 +3 +3 1018.7 1004.8
12 12.12 З 3
{7}
н/о н/о +5.6 -0.2 66 +3 +3 1018.8 1004.9
14 12.12 З 3 н/о н/о +4.6 -0.6 69 +1 +1 1019.4 1005.5
13 12.12 СЗ 2
{7}
н/о н/о +5.3 -0.5 66 +3 +3 1019.0 1005.1
15 12.12 СЗ 1 н/о н/о +3.8 -0.4 74 +3 +3 1019.8 1005.8
16 12.12 С 1 н/о н/о +3.1 -0.7 76 +2 +2 1020.1 1006.1
17 12.12 штиль 0 н/о н/о +2.7 -0.2 81 +2 +2 1020.6 1006.5
18 12.12 З 1 н/о н/о +2.1 -0.5 83 0 0 1021.0 1006.9 +6.1
20 12.12 СЗ 1 н/о н/о +1.5 -0.7 85 -0 -0 1021.4 1007.3
19 12.12 З 1 н/о н/о +1.3 -0.8 86 -1 -1 1021.2 1007.1
21 12.12 штиль 0 н/о н/о -0.5 -1.8 91 -2 -2 1021.8 1007.6
22 12.12 штиль 0 н/о н/о -1.8 -2.6 94 -3 -3 1022.1 1007.8
23 12.12 штиль 0 н/о н/о -2.7 -3.2 96 -4 -4 1022.3 1007.9
00 13.12 штиль 0 н/о н/о -3.3 -3.8 96 -5 -5 1022.4 1008.0
02 13.12 штиль 0 н/о н/о -1.7 -2.3 96 -3 -3 1022.3 1008.0
01 13.12 штиль 0 н/о н/о -2.5 -3.0 96 -4 -4 1022.4 1008.0
03 13.12 С 1 н/о н/о -0.2 -0.9 95 -2 -2 1022.0 1007.8
04 13.12 штиль 0 н/о н/о -1.3 -2.0 95 -3 -3 1021.9 1007.6
05 13.12 штиль 0 н/о н/о -2.7 -3.2 96 -4 -4 1021.9 1007.5
06 13.12 штиль 0 н/о н/о -4.3 -4.8 96 -6 -6 1021.9 1007.5 -4.3
08 13.12 С 1 н/о н/о -3.1 -3.5 97 -6 -6 1022.5 1008.1
07 13.12 штиль 0 н/о н/о -4.7 -5.2 96 -6 -6 1022.6 1008.1
09 13.12 штиль 0 н/о н/о -1.0 -1.3 98 -2 -2 1022.5 1008.2
10 13.12 штиль 0 н/о н/о +1.0 +0.6 97 -0 -0 1022.2 1008.0
11 13.12 штиль 0 н/о н/о +3.6 +0.6 81 +3 +3 1021.6 1007.6
12 13.12 З 1 н/о н/о +1.9 -0.0 87 0 0 1021.2 1007.1
14 13.12 З 2 н/о н/о +1.1 -0.5 89 -2 -2 1020.9 1006.8
13 13.12 З 1 н/о н/о +1.9 +0.4 90 0 0 1020.7 1006.6
15 13.12 С 2 н/о н/о -0.8 -1.2 97 -5 -5 1021.3 1007.1
16 13.12 н/о н/о -1.2 -1.5 98 1021.2 1006.9
17 13.12 С 2 н/о н/о -1.8 -1.9 99 -6 -6 1021.1 1006.8
18 13.12 С 2 н/о н/о -2.1 -2.2 99 -6 -6 1021.3 1007.0 +3.6
20 13.12 С 1 н/о н/о -2.6 -2.7 99 -5 -5 1021.7 1007.4
19 13.12 СЗ 1 н/о н/о -2.5 -2.6 99 -5 -5 1021.5 1007.2
21 13.12 С 1 н/о н/о -3.4 -3.7 98 -6 -6 1021.9 1007.5
22 13.12 С 1 н/о н/о -3.8 -4.2 97 -6 -6 1022.0 1007.6
23 13.12 С 1 н/о н/о -4.0 -4.4 97 -7 -7 1021.8 1007.4
00 14.12 С 1 н/о н/о -4.0 -4.4 97 -7 -7 1021.5 1007.1
02 14.12 С 1 н/о н/о -4.3 -4.7 97 -7 -7 1021.5 1007.1
01 14.12 С 1 н/о н/о -4.2 -4.6 97 -7 -7 1021.6 1007.2
03 14.12 С 1 н/о н/о -4.0 -4.4 97 -7 -7 1021.7 1007.3
04 14.12 С 1 н/о н/о -4.0 -4.4 97 -7 -7 1021.1 1006.7
05 14.12 С 2 н/о н/о -4.0 -4.4 97 -8 -8 1020.9 1006.5
06 14.12 С 2 н/о н/о -3.9 -4.3 97 -8 -8 1021.2 1006.8 -4.4
08 14.12 С 1 н/о н/о -3.2 -3.6 97 -6 -6 1021.8 1007.4
07 14.12 С 1 н/о н/о -3.5 -3.9 97 -6 -6 1021.4 1007.0
09 14.12 С 1 н/о н/о -2.5 -2.8 98 -5 -5 1021.7 1007.4
10 14.12 С 2 н/о н/о -1.5 -1.8 98 -6 -6 1021.3 1007.0
11 14.12 С 2 н/о н/о -0.3 -0.9 96 -4 -4 1020.7 1006.5
12 14.12 СВ 1 н/о н/о +0.1 -0.9 93 -2 -2 1020.4 1006.2
14 14.12 СВ 1 н/о н/о +0.8 -1.0 88 -1 -1 1020.2 1006.1
13 14.12 СВ 1 н/о н/о +0.5 -0.6 92 -2 -2 1020.1 1005.9
15 14.12 СВ 1 н/о н/о +0.6 -1.3 87 -1 -1 1020.7 1006.5
16 14.12 СВ 1 н/о н/о 0.0 -0.6 96 -2 -2 1020.5 1006.3
17 14.12 СВ 1 н/о н/о +0.1 -0.3 97 -2 -2 1020.5 1006.3
18 14.12 СВ 1 н/о н/о -0.2 -0.6 97 -2 -2 1020.6 1006.4 +0.8 2
20 14.12 СВ 1 н/о н/о -0.5 -0.9 97 -3 -3 1020.6 1006.4
19 14.12 СВ 1 н/о н/о -0.4 -0.8 97 -3 -3 1020.5 1006.3
21 14.12 СВ 1 н/о н/о -0.6 -0.9 98 -3 -3 1020.5 1006.3
22 14.12 С 1 н/о н/о -0.7 -1.1 97 -3 -3 1020.3 1006.1
23 14.12 С 1 н/о н/о -0.7 -1.0 98 -3 -3 1019.9 1005.7
00 15.12 н/о н/о -0.8 -1.2 97 1019.5 1005.3 5
02 15.12 С 1 н/о н/о -1.1 -1.5 97 -3 -3 1019.4 1005.2
01 15.12 С 1 н/о н/о -0.9 -1.3 97 -3 -3 1019.5 1005.3
03 15.12 С 1 н/о н/о -1.2 -1.6 97 -4 -4 1019.4 1005.2
04 15.12 С 2 н/о н/о -1.2 -1.6 97 -5 -5 1019.3 1005.1
05 15.12 С 2 н/о н/о -1.2 -1.6 97 -5 -5 1019.1 1004.9
06 15.12 С 1 н/о н/о -1.2 -1.6 97 -4 -4 1019.2 1005.0 -1.3 7
08 15.12 С 1 н/о н/о -1.0 -1.6 96 -3 -3 1019.6 1005.4
07 15.12 С 1 н/о н/о -1.2 -1.8 96 -4 -4 1019.4 1005.2
09 15.12 С 1 н/о н/о -0.7 -1.4 95 -3 -3 1020.0 1005.8
10 15.12 С 2 н/о н/о -0.7 -1.4 95 -5 -5 1019.6 1005.4
11 15.12 С 2 н/о н/о -0.6 -1.3 95 -5 -5 1019.2 1005.0
12 15.12 С 2 н/о н/о -0.5 -1.2 95 -4 -4 1018.8 1004.6 0.3
14 15.12 С 2 н/о н/о -0.5 -1.2 95 -4 -4 1018.7 1004.5
13 15.12 С 2 н/о н/о -0.4 -1.1 95 -4 -4 1018.5 1004.3
15 15.12 С 2 н/о н/о -0.5 -1.1 96 -4 -4 1018.7 1004.5
16 15.12 С 2 н/о н/о -0.7 -1.3 96 -5 -5 1019.0 1004.8
17 15.12 С 2 н/о н/о -0.8 -1.2 97 -5 -5 1019.0 1004.8
18 15.12 С 2 н/о н/о -0.9 -1.3 97 -5 -5 1019.4 1005.2 -0.4 1
20 15.12 С 2 н/о н/о -0.9 -1.3 97 -5 -5 1019.4 1005.2
19 15.12 СЗ 2 н/о н/о -0.9 -1.3 97 -5 -5 1019.4 1005.2
21 15.12 С 2 н/о н/о -1.0 -1.4 97 -5 -5 1019.4 1005.2
22 15.12 СЗ 2 н/о н/о -1.2 -1.8 96 -5 -5 1019.2 1005.0

 

Местоположение метеостанции Baja (Венгрия): широта 46.18 долгота 19.02 высота над уровнем моря 113 м.

В архиве по умолчанию представлена погода в Baja за последнюю неделю. Архивные данные за месяц целиком и за предыдущие месяцы, начиная с января 2011 года, Вы можете получить, выбрав интересующий диапазон дат из раскрывающегося списка и нажав кнопку "Ввод!".


*Определитесь, кто Вы:
робот инопланетянин человек

Внимание! Время в таблицах - всемирное. Для получения местного времени необходимо прибавить поправку, которая в Baja равна 1 ч.

Смотрите также архив погоды в соседних городах и на ближайших метеорологических станциях:

Погода в Paks (Венгрия) (46 км)
Погода в Sombor (Сербия) (47 км)
Погода в Palic (Сербия) (58 км)
Погода в Pecs (Венгрия) (64 км)
Погода в Osijek-Klisa (Хорватия) (80 км)
Погода в Osijek-Cepin (Хорватия) (83 км)
Погода в Szeged (Венгрия) (83 км)
Погода в Kaposvar (Венгрия) (94 км)
Погода в Kecskemet (Венгрия) (99 км)
Погода в Siofok (Венгрия) (111 км)

Пояснения к столбцам:

Ветер - указаны скорость ветра в м/с - средняя за 10 мин, порывы в срок и между сроками (в фигурных скобках) и направление, откуда дует ветер: С - северный, СВ - северо-восточный, В - восточный, ЮВ - юго-восточный, Ю - южный, ЮЗ - юго-западный, З - западный, СЗ - северо-западный.
Видимость - горизонтальная дальность видимости в метрах или километрах. При видимости от 1 до 10 км при отсутствии осадков обычно наблюдается дымка, при ухудшении видимости до 1 км и менее - туман. В сухую погоду видимость может ухудшаться дымом, пылью или мглою.
Явления - указаны атмосферные явления, наблюдавшиеся в срок или в последний час перед сроком; фигурными скобками обозначены явления, наблюдавшиеся между сроками (за 1-3 часа до срока); квадратными скобками обозначены град или гололедные отложения с указанием их диаметра в мм.
Облачность - указаны через наклонную черту общая и нижняя облачность в баллах и высота нижней границы облаков в метрах; квадратными скобками обозначены формы облаков: Ci - перистые, Cs - перисто-слоистые, Cc - перисто-кучевые, Ac - высококучевые, As - высокослоистые, Sc - слоисто-кучевые, Ns - слоисто-дождевые, Cu - кучевые, Cb - кучево-дождевые. Подробнее классификацию облаков см. в Атласе облаков (PDF).
T - Температура воздуха - температура, измеренная на высоте 2 м над землей.
Td - Температура точки росы - температура, при понижении до которой содержащийся в воздухе водяной пар достигнет насыщения.
f - Относительная влажность воздуха - влажноcть воздуха, измеренная на высоте 2 м над землей.
Te - Эффективная температура - температура, которую ощущает одетый по сезону человек в тени. Характеристика душности погоды. При расчете учитывается влияние влажности воздуха и скорости ветра на теплоощущения человека.
Tes - Эффективная температура на солнце - температура, которую ощущает человек, с поправкой на солнечный нагрев. Характеристика знойности погоды. Зависит от высоты солнца над горизонтом, облачности и скорости ветра. Ночью, в пасмурную погоду, а также при ветре 12 м/с и более поправка равна нулю.
P - Атмосферное давление - приведенное к уровню моря атмосферное давление.
Po - Атмосферное давление - измеренное на уровне метеостанции атмосферное давление.
Tmin - Минимальная температура - минимум температуры воздуха на высоте 2 м над землей.
Tmax - Максимальная температура - максимум температуры воздуха на высоте 2 м над землей.
R - Количество осадков - Количество выпавших осадков за период времени, мм. При наведении курсора мыши на число - период времени, за который выпало указанное количество осадков.
R24 - Количество осадков - Количество выпавших осадков за 24 часа, мм.
S - Снежный покров - Высота снежного покрова, см. При наведении курсора мыши на число - состояние снежного покрова и степень покрытия местности в баллах.